Torna al catalogo

STARLINK-31513

AttivoComunicazioniVLEO
NORAD 59529·PAYLOAD·🇺🇸 United States

Lanciato Apr 17, 2024 da Cape Canaveral Space Force Station

Loading…

Prossimi Passaggi (prossime 24 ore)

TLE

AggiornatoSource: CelesTrak SupGP

Epoca: Sep 14, 2026, 20:57 UTC

1 59529C 24073U   26257.87340278 -.00020307  00000+0 -73553-3 0  2573
2 59529  43.0031 326.3689 0001701 270.2545 168.5738 15.27588365    13

Traccia STARLINK-31513 in tempo reale con AllMySat

Download on the App Store